EW6230 Weather Reports


time (UTC)temp
C
wind
direction
speed
KPH
gust
KPH
rain 1hr
cm
rain 24hr
cm
rain mn
cm
humidity
%
barometer
mb
20260905184555 18 150 0.0 0.0 0.00 0.00 0.00 61 1014.4
20260905183050 18 151 0.0 0.0 0.00 0.00 0.00 56 1014.5
20260905181601 17 149 0.0 0.0 0.00 0.00 0.00 43 1014.5
20260905180037 16 150 0.0 0.0 0.00 0.00 0.00 29 1014.6
20260905174541 16 150 0.0 0.0 0.00 0.00 0.00 22 1014.6
20260905173032 15 89 0.0 0.0 0.00 0.00 0.00 11 1014.6
20260905171535 15 89 0.0 0.0 0.00 0.00 0.00 6 1014.6
20260905170019 15 89 0.0 0.0 0.00 0.00 0.00 11 1014.6
20260905164510 15 88 0.0 0.0 0.00 0.00 0.00 19 1014.5
20260905163006 15 88 0.0 0.0 0.00 0.00 0.00 14 1014.3
20260905161501 15 88 0.0 0.0 0.00 0.00 0.00 14 1014.3
20260905160132 15 89 0.0 0.0 0.00 0.00 0.00 17 1014.5
20260905154552 14 89 0.0 0.0 0.00 0.00 0.00 15 1014.5
20260905153048 14 89 0.0 0.0 0.00 0.00 0.00 1 1014.5
20260905151545 13 88 0.0 0.0 0.00 0.00 0.00 1 1014.4
20260905150038 12 87 0.0 0.0 0.00 0.00 0.00 1 1014.3
20260905144535 12 87 0.0 0.0 0.00 0.00 0.00 1 1014.2
20260905143030 11 87 0.0 0.0 0.00 0.00 0.00 1 1014.2
20260905141526 -17 0.0 0.0 0.00 0.00 0.00 1014.0
20260905140021 -17 0.0 0.0 0.00 0.00 0.00 1014.0
20260905134516 -17 0.0 0.0 0.00 0.00 0.00 1014.0
20260905133012 -17 0.0 0.0 0.00 0.00 0.00 1014.0
20260905131508 -17 0.0 0.0 0.00 0.00 0.00 1013.9
20260905130004 -17 0.0 0.0 0.00 0.00 0.00 1014.0
20260905124601 -17 0.0 0.0 0.00 0.00 0.00 1013.7
20260905123056 -17 0.0 0.0 0.00 0.00 0.00 1013.7
20260905121552 10 87 0.0 0.0 0.00 0.00 0.00 1 1013.7
20260905120055 10 87 0.0 0.0 0.00 0.00 0.00 1 1013.6
20260905114542 10 87 0.0 0.0 0.00 0.00 0.00 1 1013.5
20260905113038 10 87 0.0 0.0 0.00 0.00 0.00 1 1013.4
20260905111534 10 87 0.0 0.0 0.00 0.00 0.00 1 1013.4
20260905110029 10 87 0.0 0.0 0.00 0.00 0.00 1 1013.4
20260905104525 11 87 0.0 0.0 0.00 0.00 0.00 1 1013.4
20260905103025 11 87 0.0 0.0 0.00 0.00 0.00 1 1013.4
20260905101517 11 87 0.0 0.0 0.00 0.00 0.00 1 1013.4
20260905100012 11 87 0.0 0.0 0.00 0.00 0.00 1 1013.4
20260905094510 11 87 0.0 0.0 0.00 0.00 0.00 1 1013.6
20260905093004 11 87 0.0 0.0 0.00 0.00 0.00 1 1013.6
20260905091622 11 87 0.0 0.0 0.00 0.00 0.00 1 1013.5
20260905090117 11 87 0.0 0.0 0.00 0.00 0.00 1 1013.3
20260905084600 11 87 0.0 0.0 0.00 0.00 0.00 1 1013.3
20260905083047 11 87 0.0 0.0 0.00 0.00 0.00 1 1013.2
20260905081543 11 87 0.0 0.0 0.00 0.00 0.00 1 1013.1
20260905080048 11 87 0.0 0.0 0.00 0.00 0.00 1 1013.2
20260905074534 11 87 0.0 0.0 0.00 0.00 0.00 1 1013.1
20260905073028 11 87 0.0 0.0 0.00 0.00 0.00 1 1013.1
20260905071524 11 87 0.0 0.0 0.00 0.00 0.00 1 1013.0
20260905070023 11 87 0.0 0.0 0.00 0.00 0.00 1 1012.9
20260905064518 11 87 0.0 0.0 0.00 0.00 0.00 1 1012.8
20260905063011 11 87 0.0 0.0 0.00 0.00 0.00 1 1012.7
20260905061507 11 87 0.0 0.0 0.00 0.00 0.00 1 1012.6
20260905060003 11 87 0.0 0.0 0.00 0.00 0.00 1 1012.7
20260905054559 12 87 0.0 1.6 0.00 0.00 0.00 2 1012.7
20260905053054 12 87 0.0 0.0 0.00 0.00 0.00 4 1012.6
20260905051550 12 87 0.0 0.0 0.00 0.00 0.00 7 1012.6
20260905050045 12 87 0.0 0.0 0.00 0.00 0.00 11 1012.5
20260905044540 12 87 0.0 0.0 0.00 0.00 0.00 9 1012.7
20260905043035 12 87 0.0 0.0 0.00 0.00 0.00 13 1012.7
20260905041531 13 87 0.0 0.0 0.00 0.00 0.00 15 1012.6
20260905040031 13 87 0.0 0.0 0.00 0.00 0.00 19 1012.6
20260905034522 13 86 0.0 0.0 0.00 0.00 0.00 19 1012.6
20260905033029 13 86 0.0 0.0 0.00 0.00 0.00 23 1012.5
20260905031513 13 86 0.0 0.0 0.00 0.00 0.00 27 1012.3
20260905030033 13 86 0.0 0.0 0.00 0.00 0.00 33 1012.1
20260905024602 14 86 0.0 0.0 0.00 0.00 0.00 42 1011.9
20260905023054 15 86 0.0 0.0 0.00 0.00 0.00 51 1011.8
20260905021554 15 86 0.0 0.0 0.00 0.00 0.00 56 1011.8
20260905020044 16 86 0.0 0.0 0.00 0.00 0.00 62 1011.9
20260905014539 16 86 0.0 0.0 0.00 0.00 0.00 63 1011.8
20260905013035 16 86 0.0 0.0 0.00 0.00 0.00 63 1011.7
20260905011536 16 86 0.0 0.0 0.00 0.00 0.00 62 1011.6
20260905010026 16 86 0.0 0.0 0.00 0.00 0.00 63 1011.5
20260905004535 16 86 0.0 0.0 0.00 0.00 0.00 63 1011.4
20260905003028 17 86 0.0 0.0 0.00 0.00 0.00 63 1011.2
20260905001539 17 86 0.0 1.6 0.00 0.00 0.00 63 1011.2
20260905000009 17 86 0.0 0.0 0.00 0.00 0.00 63 1011.1
20260904234514 17 86 0.0 0.0 0.00 0.03 0.00 63 1011.0
20260904233120 17 86 0.0 0.0 0.00 0.03 0.00 63 1011.0
20260904231605 18 86 0.0 1.6 0.00 0.03 0.00 63 1010.8
20260904230052 18 86 0.0 1.6 0.00 0.03 0.00 62 1010.9
20260904224555 19 87 0.0 1.6 0.00 0.03 0.00 62 1010.7
20260904223056 20 349 0.0 1.6 0.00 0.03 0.00 60 1010.7
20260904221539 20 336 0.0 1.6 0.00 0.03 0.00 59 1010.7
20260904220034 21 211 0.0 1.6 0.00 0.03 0.00 57 1010.9
20260904214529 19 207 0.0 3.2 0.00 0.03 0.00 62 1010.8
20260904213027 18 44 0.0 1.6 0.00 0.03 0.00 63 1010.8
20260904211520 18 198 0.0 4.8 0.00 0.03 0.00 61 1010.8
20260904210015 19 234 0.0 1.6 0.00 0.03 0.00 63 1010.8
20260904204511 18 131 0.0 1.6 0.00 0.03 0.00 62 1010.8
20260904203007 18 136 0.0 1.6 0.00 0.03 0.00 62 1010.8
20260904201502 17 139 0.0 1.6 0.00 0.03 0.00 62 1010.8
20260904194554 18 11 0.0 1.6 0.00 0.03 0.00 63 1010.7
20260904193106 18 350 0.0 1.6 0.00 0.03 0.00 62 1010.6
20260904191552 18 13 0.0 1.6 0.00 0.03 0.00 63 1010.5
20260904190041 17 73 0.0 3.2 0.00 0.03 0.00 63 1010.3